Regional Weather Roundup
Issued by NWS

Home | Current Version | Previous Version | Text Only | Print | Product List | Glossary Off
Versions: 1 2 3 4 5 6 7 8 9 10 11 12 13 14 15 16 17 18 19 20 21 22 23 24 25 26 27 28 29 30 31 32 33 34 35 36 37 38 39 40 41 42 43 44 45 46 47 48 49 50

137
ASUS43 KMKX 271611
RWRWI

WISCONSIN REGIONAL WEATHER ROUNDUP
NATIONAL WEATHER SERVICE MILWAUKEE/SULLIVAN WI
1100 AM CDT SAT AUG 27 2016

NOTE: "FAIR" INDICATES FEW OR NO CLOUDS BELOW 12,000 FEET WITH NO
SIGNIFICANT WEATHER AND/OR OBSTRUCTIONS TO VISIBILITY.

WIZ001-002-006>008-014>016-023>028-271700-
NORTHWEST WISCONSIN

CITY           SKY/WX    TMP DP  RH WIND       PRES   REMARKS
SUPERIOR ARPT  LGT RAIN  62  60  91 E3        30.07F
ASHLAND        CLOUDY    68  58  70 SE5       30.09F
HAYWARD        CLOUDY    63  56  78 SE3       30.09F
SIREN          CLOUDY    64  59  84 SE3       30.08F
CUMBERLAND     CLOUDY    63  55  77 E3        30.09S
RICE LAKE      CLOUDY    65  58  77 E5        30.09F
CHETEK         NOT AVBL
LADYSMITH      MOSUNNY   68  56  66 SE3       30.10F
EAU CLAIRE     CLOUDY    68  58  70 SE8       30.06F
MENOMONIE      CLOUDY    67  58  74 E6        30.07S
NEW RICHMOND   CLOUDY    64  58  80 SE3       30.07F
OSCEOLA        LGT RAIN  64  64 100 E5        30.09F
$$

WIZ003>005-009-010-017-018-271700-
NORTH CENTRAL WISCONSIN

CITY           SKY/WX    TMP DP  RH WIND       PRES   REMARKS
MANITOWISH WTR NOT AVBL
ARBOR VITAE    PTSUNNY   68  57  67 S7        30.12S
WOODRUFF       PTSUNNY   68  57  67 S7        30.12S
RHINELANDER    CLOUDY    65  58  78 VRB5      30.13F
EAGLE RIVER    CLOUDY    66  54  64 SE8       30.12F
LAND O LAKES   CLOUDY    67  54  61 SE6       30.13F
PHILLIPS       CLOUDY    66  56  71 SE7       30.10F
TOMAHAWK       MOSUNNY   66  57  72 CALM      30.11F
MEDFORD        MOSUNNY   67  58  75 SE8       30.09F
MERRILL        CLOUDY    66  58  77 SE10      30.11F
$$

WIZ029-030-035-036-043>047-271700-
CENTRAL WISCONSIN

CITY           SKY/WX    TMP DP  RH WIND       PRES   REMARKS
WAUSAU         CLOUDY    64  58  80 SE10      30.09F
MOSINEE        CLOUDY    63  61  94 E8        30.11F
MARSHFIELD     CLOUDY    65  58  78 E8        30.09F
STEVENS POINT  CLOUDY    61  57  87 E8        30.10F
WAUPACA        CLOUDY    66  64  93 E8        30.09F
WAUTOMA        CLOUDY    63  61  93 E9        30.07F
WISC RAPIDS    CLOUDY    64  61  90 E6        30.09F
CAMP DOUGLAS   CLOUDY    63  61  94 E9        30.06F
$$

WIZ011>013-019>022-031-037>040-048>050-271700-
NORTHEAST WISCONSIN

CITY           SKY/WX    TMP DP  RH WIND       PRES   REMARKS
ANTIGO         CLOUDY    63  59  86 SE7       30.13F
SHAWANO        CLOUDY    65  61  86 E5        30.11F
OCONTO         NOT AVBL
STURGEON BAY   CLOUDY    63  60  90 SE10      30.12F
GREEN BAY      CLOUDY    63  62  97 E8        30.10F
MANITOWOC      CLOUDY    63  60  90 MISG      30.09F
APPLETON       CLOUDY    63  63 100 E7        30.09F
CLINTONVILLE   CLOUDY    63  61  94 E3        30.10F
OSHKOSH        CLOUDY    63  59  87 E8        30.08F
$$

WIZ032>034-041-042-053>061-271700-
SOUTHWEST WISCONSIN

CITY           SKY/WX    TMP DP  RH WIND       PRES   REMARKS
LA CROSSE      CLOUDY    66  61  84 SE7       30.04F
SPARTA         CLOUDY    64  60  90 E6        30.07S
VIROQUA        CLOUDY    66  63  89 SE8G16    30.06S
BOSCOBEL       CLOUDY    67  63  87 VRB6      30.04F
PRAIRIE DU CHI CLOUDY    65  64  96 E6        30.02F
PLATTEVILLE    CLOUDY    66  66 100 E5        30.03F
$$

WIZ056-057-062-063-064-067-068-271700-
SOUTH CENTRAL WISCONSIN

CITY           SKY/WX    TMP DP  RH WIND       PRES   REMARKS
REEDSBURG      NOT AVBL
BARABOO/DELLS  CLOUDY    62  60  93 E6        30.06F
LONE ROCK      LGT RAIN  64  62  93 E7        30.05F
MINERAL POINT  CLOUDY    64  64 100 E6        30.04F FOG
MADISON        DRIZZLE   64  62  93 E6        30.04F
MIDDLETON      CLOUDY    64  64 100 NE6       30.05F
WATERTOWN      CLOUDY    65  65  97 E7        30.05F
MONROE         CLOUDY    68  64  88 CALM      30.04F
JANESVILLE     CLOUDY    73  72  94 VRB6      30.02F
$$

WIZ051-052-058>065-066-070>072-271700-
SOUTHEAST WISCONSIN

CITY           SKY/WX    TMP DP  RH WIND       PRES   REMARKS
MILWAUKEE      PTSUNNY   69  65  86 NE9       30.05F
WAUKESHA       CLOUDY    63  61  94 E5        30.07F
MILWAUKEE/TIMM CLOUDY    64  61  88 NE6       30.06F
RACINE         CLOUDY    70  66  87 N6        30.06F
BURLINGTON     CLOUDY    67  64  90 NE6       30.04F
KENOSHA        CLOUDY    73  69  87 SE7       30.05F
FOND DU LAC    CLOUDY    62  60  93 E5        30.08F
SHEBOYGAN      CLOUDY    63  60  90 NE13      30.08F
WEST BEND      CLOUDY    63  61  94 NE8       30.07F
JUNEAU         CLOUDY    63  60  92 NE6       30.07F
$$

LSZ147-162-271700-
LAKE SUPERIOR

STATION/POSITION TIME  TEMP    WIND        PRES    WAVE
                       AIR SEA DIR/SP/G            HT/PER
                 (UTC) (F)     (DEG/KT/KT) (MB)    (FT/S)
W MID LAKE BUOY  1550   65 67  150/ 12/ 14 1018.9F   1/ 3
DEVILS ISLAND    1600   66     140/  2/  4 1019.0F
PORT WING        1500   67     120/  2/  4 1019.3
SAXON HARBOR     1540   70     110/  2/  5 1019.0F
$$

LMZ867-665-643>646-271700-
LAKE MICHIGAN

STATION/POSITION TIME  TEMP    WIND        PRES    WAVE
                       AIR SEA DIR/SP/G            HT/PER
                 (UTC) (F)     (DEG/KT/KT) (MB)    (FT/S)
CHAMBERS ISLAND  1500   63     130/  6/ 12 1020.3F
S GREEN BAY BUOY 1500   64 71  120/ 12/ 14 1019.7
N MID LAKE BUOY  1550   64 69  150/ 14/ 17 1019.9F   2/ 3
NORTHPORT PIER   1500   64     150/ 10/ 15 1020.7F
SISTER BAY       1537   61     140/  9/ 15   N/A
KEWAUNEE LAKESHO 1500   59     100/  6/  9 1020.0F
SHEBOYGAN LAKESH 1600   59      20/ 10/ 11 1018.3F
PORT WASHINGTON  1540   64      40/ 10/ 13 1018.6F
ATWATER BUOY     1600   61     360/ 10/ 14   N/A
MILWAUKEE LAKESH 1510   64     360/  7/  8   N/A
S MID LAKE BUOY  1550   72 74  130/ 12/ 14 1016.8F   2/ 4
KENOSHA   LAKESH 1600   70     200/  2/  4 1017.3F
$$

TC  - TEMPERATURE IN CELSIUS
VSB - VISIBILITY IN STATUTE MILES
WCI - WIND CHILL INDEX
HX  - HEAT INDEX





USA.gov is the U.S. government's official web portal to all federal, state and local government web resources and services.